Location: Gleizolles
(44.4833°N, 6.7667°E)
Time: 06:37:23
(UTC+00:00)

Transit 4A - Pass Details

Date: 01 July 2024
Orbit: 870 x 973 km, 66.8° (Epoch: 14 July)

Event Time Altitude Azimuth Distance (km) Brightness Sun altitude
Rises 03:02:10 0° 333° (NNW) 3,492 11.1 -7.8°
Reaches altitude 10° 03:05:08 10° 347° (NNW) 2,563 10.6 -7.4°
Maximum altitude 03:09:56 25° 41° (NE) 1,755 10.5 -6.8°
Drops below altitude 10° 03:14:48 10° 95° (E) 2,609 11.0 -6.1°
Sets 03:17:50 0° 108° (ESE) 3,567 11.4 -5.7°
